User: anonymous   Login
Location: Vancouver
(49.2500°N, 123.1330°W)
Time: 15:25:54
(UTC-08:00)
Language:

AO-27 - Orbit

View from above orbital plane
View from above orbital plane
View from above satellite
View from above satellite

Ground track
Ground track

The orbit data is extracted from the following two-line orbital elements,

1 22825U 93061C   17019.50600279  .00000008  00000-0  20628-4 0  9995
2 22825  98.7916 343.4308 0009254  50.2564 309.9432 14.29983192216151
Epoch (UTC): 19 January 2017 12:08:38
Eccentricity: 0.0009254
inclination: 98.7916°
perigee height: 785 km
apogee height: 798 km
right ascension of ascending node: 343.4308°
argument of perigee: 50.2564°
revolutions per day: 14.29983192
mean anomaly at epoch: 309.9432°
orbit number at epoch: 21615

The dashed part of the orbit path shows where the satellite is in the earth's shadow,  

DLR